User: anonymous   Login
Location: Unspecified
(37.2710°N, 0.0000°E)
Time: 19:51:01
(UTC+00:00)
Language:

FENGYUN 1C DEB - Orbit

View from above orbital plane
View from above orbital plane
View from above satellite
View from above satellite

Ground track
Ground track

The orbit is defined by the following mean orbital elements,

1 30183U          26088.08955081 +.00000000 +00000-0 +48773-3 0 00000
2 30183  98.7731 133.2690 0025017 313.2478 101.1759 14.12887942    09
Epoch (UTC): 29 March 2026 02:08:57
Eccentricity: 0.0025017
inclination: 98.7731°
perigee height: 831 km
apogee height: 868 km
right ascension of ascending node: 133.2690°
argument of perigee: 313.2478°
revolutions per day: 14.12887942
mean anomaly at epoch: 101.1759°

The dashed part of the orbit path shows where the satellite is in the earth's shadow,  

DLR